Weather History for Pottstown, PA

Change the Weather History Date:

Wednesday, November 28, 2012

  Actual Average (KRDG) Record (KRDG)
Temperature  
Mean Temperature 32 °F 40 °F  
Max Temperature 37 °F 48 °F 69 °F (2011)
Min Temperature 25 °F 31 °F 14 °F (1930)
Degree Days  
Heating Degree Days 34 26  
Month to date heating degree days 577  
Since 1 July heating degree days 1015  
Cooling Degree Days 0 0  
Month to date cooling degree days 0  
Year to date cooling degree days 896  
Moisture  
Dew Point 26 °F    
Average Humidity 77    
Maximum Humidity 96    
Minimum Humidity 54    
Precipitation  
Precipitation 0.00 in 0.14 in 2.21 in (1993)
Month to date precipitation 3.17  
Year to date precipitation 39.69  
Sea Level Pressure  
Sea Level Pressure 30.27 in    
Wind  
Wind Speed 3 mph (WNW)    
Max Wind Speed 13 mph    
Max Gust Speed 22 mph    
Visibility 9 miles    
Events      
T = Trace of Precipitation, MM = Missing Value Source: NWS Daily Summary

Daily Weather History Graph

Daily Weather History Graph

Search for Another Location

Airport:

Trip Planner

Search our weather history database for the weather conditions in past years. The results will help you decide how hot, cold, wet, or windy it might be!

Date:

Astronomy

Nov. 28, 2012 Rise Set
Actual Time 7:02 AM EST 4:37 PM EST
Civil Twilight 6:32 AM EST 5:07 PM EST
Nautical Twilight 5:59 AM EST 5:41 PM EST
Astronomical Twilight 5:26 AM EST 6:13 PM EST
Moon 4:50 PM EST (11/28) 6:58 AM EST (11/28)
Length of Visible Light 10h 34m
Length of Day
9h 34m
Full, 100% of the Moon is Illuminated
Nov 28
Full
Dec 6
Last Quarter
Dec 13
New
Dec 20
First Quarter
Dec 28
Full

Hourly Weather History & Observations

Time (EST) Temp. Windchill Dew Point Humidity Pressure Visibility Wind Dir Wind Speed Gust Speed Precip Events Conditions
12:54 AM 34.0 °F - 33.1 °F 96% 30.22 in 4.0 mi Calm Calm - N/A   Overcast
1:54 AM 34.0 °F 31.0 °F 32.0 °F 92% 30.24 in 8.0 mi WNW 3.5 mph - N/A   Overcast
2:54 AM 34.0 °F - 32.0 °F 92% 30.23 in 6.0 mi Calm Calm - N/A   Overcast
3:54 AM 34.0 °F 31.0 °F 30.9 °F 89% 30.25 in 9.0 mi WNW 3.5 mph - N/A   Overcast
4:54 AM 33.1 °F - 30.9 °F 92% 30.25 in 10.0 mi Calm Calm - N/A   Overcast
5:54 AM 30.9 °F 27.5 °F 28.9 °F 92% 30.24 in 9.0 mi WNW 3.5 mph - N/A   Clear
6:54 AM 30.0 °F 26.5 °F 28.0 °F 92% 30.26 in 6.0 mi WNW 3.5 mph - N/A   Clear
7:54 AM 30.9 °F 27.5 °F 28.0 °F 89% 30.27 in 8.0 mi West 3.5 mph - N/A   Clear
8:54 AM 33.1 °F 28.7 °F 28.0 °F 82% 30.29 in 10.0 mi West 4.6 mph - N/A   Clear
9:54 AM 35.1 °F 28.6 °F 26.1 °F 70% 30.30 in 10.0 mi WNW 8.1 mph - N/A   Clear
10:54 AM 37.0 °F 31.0 °F 25.0 °F 62% 30.28 in 10.0 mi WNW 8.1 mph - N/A   Clear
11:54 AM 37.0 °F 30.4 °F 23.0 °F 57% 30.25 in 10.0 mi West 9.2 mph - N/A   Mostly Cloudy
12:54 PM 36.0 °F 27.5 °F 23.0 °F 59% 30.26 in 10.0 mi WNW 12.7 mph 21.9 mph N/A   Overcast
1:54 PM 37.0 °F 30.4 °F 21.9 °F 54% 30.25 in 10.0 mi WNW 9.2 mph - N/A   Scattered Clouds
2:54 PM 37.9 °F 32.7 °F 24.1 °F 57% 30.23 in 10.0 mi WNW 6.9 mph - N/A   Clear
3:54 PM 37.0 °F 32.4 °F 24.1 °F 59% 30.23 in 10.0 mi West 5.8 mph - N/A   Clear
4:54 PM 35.1 °F - 24.1 °F 64% 30.25 in 10.0 mi Calm Calm - N/A   Clear
5:54 PM 36.0 °F 33.3 °F 23.0 °F 59% 30.27 in 10.0 mi WSW 3.5 mph - N/A   Clear
6:54 PM 28.9 °F - 23.0 °F 78% 30.29 in 10.0 mi Calm Calm - N/A   Clear
7:54 PM 28.0 °F - 23.0 °F 81% 30.30 in 10.0 mi Calm Calm - N/A   Clear
8:54 PM 26.1 °F - 23.0 °F 88% 30.30 in 8.0 mi Calm Calm - N/A   Unknown
9:54 PM 26.1 °F - 21.9 °F 84% 30.32 in 8.0 mi Calm Calm - N/A   Unknown
10:54 PM 26.1 °F - 21.0 °F 81% 30.33 in 9.0 mi Calm Calm - N/A   Mostly Cloudy
11:54 PM 25.0 °F - 21.0 °F 85% 30.34 in 8.0 mi Calm Calm - N/A   Unknown